CEB921 RPLL-RPSP

Flight info

Callsign CEB921
Flight time 1h 1m
Altitude 37000
Route IPATA2R IPATA W25 BATAY BATAY1P
Aircraft A339/H-SADE1E2E3GHIJ3J5M1P2RWXY/LB2D1

Departure

Time 2026-04-15 12:59
Airport Ninoy Aquino International Airport (RPLL)

Arrival

Time 2026-04-15 14:00
Airport Bohol-Panglao International Airport (RPSP)
Time Latitude Longitude Altitude Speed Heading
2026-04-15 12:30 14.51607 121.01560 91 ft 0 kts 46°
2026-04-15 12:44 14.51606 121.01559 90 ft 1 kts 46°
2026-04-15 12:44 14.51597 121.01549 90 ft 2 kts 46°
2026-04-15 12:45 14.51586 121.01538 90 ft 2 kts 46°
2026-04-15 12:45 14.51577 121.01526 91 ft 2 kts 64°
2026-04-15 12:45 14.51572 121.01511 91 ft 2 kts 78°
2026-04-15 12:45 14.51570 121.01496 91 ft 2 kts 91°
2026-04-15 12:46 14.51572 121.01482 91 ft 2 kts 105°
2026-04-15 12:46 14.51577 121.01467 91 ft 2 kts 119°
2026-04-15 12:46 14.51585 121.01455 91 ft 1 kts 133°
2026-04-15 12:46 14.51589 121.01450 91 ft 0 kts 136°
2026-04-15 12:50 14.51587 121.01453 91 ft 1 kts 135°
2026-04-15 12:50 14.51504 121.01539 91 ft 18 kts 133°
2026-04-15 12:51 14.51414 121.01633 90 ft 18 kts 135°
2026-04-15 12:51 14.51327 121.01723 91 ft 16 kts 135°
2026-04-15 12:51 14.51248 121.01804 90 ft 15 kts 134°
2026-04-15 12:51 14.51171 121.01884 90 ft 15 kts 135°
2026-04-15 12:52 14.51125 121.01932 91 ft 2 kts 134°
2026-04-15 12:52 14.51106 121.01952 90 ft 7 kts 135°
2026-04-15 12:53 14.51065 121.01983 90 ft 5 kts 177°
2026-04-15 12:53 14.51011 121.01933 90 ft 16 kts 239°
2026-04-15 12:53 14.50953 121.01830 90 ft 17 kts 240°
2026-04-15 12:53 14.50892 121.01720 90 ft 17 kts 240°
2026-04-15 12:54 14.50830 121.01608 90 ft 18 kts 240°
2026-04-15 12:54 14.50768 121.01498 90 ft 17 kts 240°
2026-04-15 12:54 14.50707 121.01388 90 ft 18 kts 241°
2026-04-15 12:54 14.50629 121.01247 90 ft 24 kts 240°
2026-04-15 12:55 14.50545 121.01096 90 ft 23 kts 239°
2026-04-15 12:55 14.50464 121.00951 90 ft 23 kts 240°
2026-04-15 12:55 14.50383 121.00804 90 ft 24 kts 241°
2026-04-15 12:55 14.50300 121.00655 90 ft 23 kts 240°
2026-04-15 12:56 14.50221 121.00513 90 ft 22 kts 240°
2026-04-15 12:56 14.50152 121.00388 90 ft 18 kts 240°
2026-04-15 12:56 14.50087 121.00270 90 ft 18 kts 240°
2026-04-15 12:56 14.50023 121.00156 90 ft 18 kts 240°
2026-04-15 12:57 14.49961 121.00044 90 ft 17 kts 239°
2026-04-15 12:57 14.49902 120.99968 91 ft 11 kts 199°
2026-04-15 12:57 14.49829 120.99993 91 ft 11 kts 146°
2026-04-15 12:57 14.49802 121.00036 91 ft 7 kts 92°
2026-04-15 12:58 14.49827 121.00095 91 ft 9 kts 59°
2026-04-15 12:58 14.49835 121.00108 91 ft 0 kts 58°
2026-04-15 12:58 14.49863 121.00155 91 ft 30 kts 59°
2026-04-15 12:59 14.50506 121.01314 91 ft 149 kts 60°
2026-04-15 12:59 14.51086 121.02356 273 ft 178 kts 61°
2026-04-15 12:59 14.51723 121.03482 809 ft 182 kts 61°
2026-04-15 13:00 14.52338 121.04578 1527 ft 177 kts 62°
2026-04-15 13:00 14.52936 121.05668 2164 ft 178 kts 62°
2026-04-15 13:00 14.53569 121.06829 2537 ft 194 kts 61°
2026-04-15 13:00 14.54249 121.08066 2969 ft 207 kts 61°
2026-04-15 13:01 14.54998 121.09422 3346 ft 225 kts 61°
2026-04-15 13:01 14.55800 121.10870 3731 ft 242 kts 60°
2026-04-15 13:01 14.56640 121.12415 4173 ft 256 kts 65°
2026-04-15 13:01 14.57253 121.14180 4742 ft 264 kts 77°
2026-04-15 13:02 14.57541 121.16051 5503 ft 265 kts 82°
2026-04-15 13:02 14.57753 121.17923 6242 ft 267 kts 83°
2026-04-15 13:02 14.57639 121.19839 6891 ft 273 kts 109°
2026-04-15 13:02 14.56537 121.21431 7527 ft 280 kts 138°
2026-04-15 13:03 14.54989 121.22655 8163 ft 284 kts 140°
2026-04-15 13:03 14.53409 121.23920 8775 ft 288 kts 139°
2026-04-15 13:03 14.51839 121.25214 9376 ft 291 kts 139°
2026-04-15 13:03 14.50808 121.26079 9770 ft 293 kts 139°
2026-04-15 13:04 14.48678 121.27883 10477 ft 301 kts 138°
2026-04-15 13:04 14.47024 121.29299 10746 ft 317 kts 138°
2026-04-15 13:04 14.45288 121.30791 11009 ft 332 kts 138°
2026-04-15 13:04 14.43482 121.32345 11438 ft 341 kts 138°
2026-04-15 13:05 14.41647 121.33924 12014 ft 345 kts 138°
2026-04-15 13:05 14.39800 121.35515 12587 ft 348 kts 137°
2026-04-15 13:05 14.37938 121.37120 13138 ft 352 kts 138°
2026-04-15 13:05 14.36037 121.38760 13710 ft 355 kts 138°
2026-04-15 13:06 14.34141 121.40395 14286 ft 358 kts 138°
2026-04-15 13:06 14.32233 121.42041 14860 ft 361 kts 137°
2026-04-15 13:06 14.30303 121.43703 15427 ft 363 kts 137°
2026-04-15 13:06 14.28372 121.45368 15990 ft 365 kts 137°
2026-04-15 13:07 14.26402 121.47066 16573 ft 368 kts 137°
2026-04-15 13:07 14.24426 121.48769 17131 ft 370 kts 137°
2026-04-15 13:07 14.22446 121.50475 17682 ft 372 kts 137°
2026-04-15 13:07 14.20453 121.52192 18203 ft 376 kts 137°
2026-04-15 13:08 14.18450 121.53918 18698 ft 380 kts 137°
2026-04-15 13:08 14.16401 121.55683 19190 ft 384 kts 137°
2026-04-15 13:08 14.14344 121.57454 19687 ft 387 kts 137°
2026-04-15 13:08 14.12286 121.59225 20168 ft 391 kts 138°
2026-04-15 13:09 14.10190 121.61028 20645 ft 394 kts 137°
2026-04-15 13:09 14.08072 121.62850 21115 ft 397 kts 138°
2026-04-15 13:09 14.05937 121.64687 21565 ft 401 kts 138°
2026-04-15 13:09 14.03800 121.66527 22007 ft 404 kts 139°
2026-04-15 13:10 14.01644 121.68381 22432 ft 408 kts 139°
2026-04-15 13:10 13.99433 121.70282 22864 ft 411 kts 139°
2026-04-15 13:10 13.97258 121.72152 23320 ft 413 kts 139°
2026-04-15 13:10 13.95037 121.74060 23790 ft 415 kts 139°
2026-04-15 13:11 13.92811 121.75974 24258 ft 417 kts 139°
2026-04-15 13:11 13.90576 121.77893 24712 ft 418 kts 139°
2026-04-15 13:11 13.88331 121.79819 25151 ft 420 kts 139°
2026-04-15 13:11 13.86054 121.81707 25575 ft 422 kts 142°
2026-04-15 13:12 13.83686 121.83509 25996 ft 424 kts 143°
2026-04-15 13:12 13.81292 121.85313 26420 ft 426 kts 143°
2026-04-15 13:12 13.78895 121.87116 26826 ft 427 kts 143°
2026-04-15 13:12 13.76502 121.88916 27217 ft 429 kts 143°
2026-04-15 13:13 13.74090 121.90731 27601 ft 431 kts 143°
2026-04-15 13:13 13.71655 121.92564 27980 ft 433 kts 143°
2026-04-15 13:13 13.69216 121.94405 28340 ft 435 kts 143°
2026-04-15 13:13 13.66751 121.96262 28700 ft 437 kts 143°
2026-04-15 13:14 13.64315 121.98096 29062 ft 438 kts 143°
2026-04-15 13:14 13.61843 121.99960 29419 ft 440 kts 143°
2026-04-15 13:14 13.59375 122.01820 29758 ft 442 kts 143°
2026-04-15 13:14 13.56884 122.03694 30095 ft 444 kts 143°
2026-04-15 13:15 13.54386 122.05576 30428 ft 446 kts 143°
2026-04-15 13:15 13.51860 122.07476 30752 ft 448 kts 143°
2026-04-15 13:15 13.49346 122.09368 31070 ft 449 kts 143°
2026-04-15 13:15 13.46832 122.11259 31375 ft 451 kts 143°
2026-04-15 13:16 13.44275 122.13180 31671 ft 454 kts 143°
2026-04-15 13:16 13.41752 122.15077 31958 ft 456 kts 143°
2026-04-15 13:16 13.39170 122.17019 32268 ft 457 kts 144°
2026-04-15 13:16 13.36607 122.18945 32572 ft 459 kts 144°
2026-04-15 13:17 13.34028 122.20882 32894 ft 460 kts 144°
2026-04-15 13:17 13.31449 122.22819 33230 ft 462 kts 144°
2026-04-15 13:17 13.28862 122.24760 33660 ft 461 kts 143°
2026-04-15 13:17 13.26243 122.26724 34179 ft 458 kts 143°
2026-04-15 13:18 13.23693 122.28637 34667 ft 456 kts 143°
2026-04-15 13:18 13.21147 122.30547 35123 ft 455 kts 143°
2026-04-15 13:18 13.18581 122.32471 35506 ft 454 kts 143°
2026-04-15 13:18 13.16021 122.34391 35799 ft 455 kts 143°
2026-04-15 13:19 13.13455 122.36316 36061 ft 457 kts 143°
2026-04-15 13:19 13.10889 122.38239 36326 ft 458 kts 143°
2026-04-15 13:19 13.09162 122.39533 36511 ft 459 kts 143°
2026-04-15 13:19 13.05726 122.42107 36847 ft 460 kts 143°
2026-04-15 13:20 13.00529 122.46000 36941 ft 463 kts 143°
2026-04-15 13:20 12.95331 122.49892 36947 ft 463 kts 143°
2026-04-15 13:21 12.90113 122.53797 36944 ft 463 kts 143°
2026-04-15 13:21 12.84906 122.57689 36945 ft 463 kts 143°
2026-04-15 13:22 12.79695 122.61584 36945 ft 463 kts 143°
2026-04-15 13:22 12.74471 122.65486 36946 ft 463 kts 143°
2026-04-15 13:23 12.69278 122.69363 36947 ft 463 kts 143°
2026-04-15 13:23 12.64062 122.73256 36945 ft 463 kts 143°
2026-04-15 13:24 12.58864 122.77134 36946 ft 463 kts 143°
2026-04-15 13:24 12.53666 122.81009 36942 ft 463 kts 143°
2026-04-15 13:25 12.48444 122.84902 36935 ft 464 kts 143°
2026-04-15 13:25 12.43236 122.88783 36930 ft 463 kts 143°
2026-04-15 13:26 12.38040 122.92657 36928 ft 463 kts 143°
2026-04-15 13:26 12.32804 122.96554 36924 ft 463 kts 143°
2026-04-15 13:27 12.27605 123.00408 36923 ft 463 kts 143°
2026-04-15 13:27 12.22398 123.04267 36923 ft 463 kts 143°
2026-04-15 13:28 12.17177 123.08141 36924 ft 464 kts 143°
2026-04-15 13:28 12.14526 123.10108 36670 ft 466 kts 143°
2026-04-15 13:28 12.11922 123.12041 36118 ft 467 kts 143°
2026-04-15 13:29 12.09279 123.14002 35538 ft 467 kts 143°
2026-04-15 13:29 12.06672 123.15936 34950 ft 467 kts 143°
2026-04-15 13:29 12.04036 123.17893 34355 ft 467 kts 143°
2026-04-15 13:29 12.01407 123.19843 33779 ft 466 kts 143°
2026-04-15 13:30 11.98801 123.21775 33193 ft 466 kts 143°
2026-04-15 13:30 11.96196 123.23706 32623 ft 464 kts 143°
2026-04-15 13:30 11.93581 123.25642 32306 ft 457 kts 143°
2026-04-15 13:30 11.91036 123.27526 31976 ft 451 kts 143°
2026-04-15 13:31 11.88504 123.29400 31614 ft 447 kts 143°
2026-04-15 13:31 11.86007 123.31248 31255 ft 442 kts 143°
2026-04-15 13:31 11.83518 123.33090 30896 ft 437 kts 143°
2026-04-15 13:31 11.81066 123.34905 30587 ft 432 kts 143°
2026-04-15 13:32 11.78614 123.36721 30310 ft 439 kts 143°
2026-04-15 13:32 11.76122 123.38567 30035 ft 441 kts 143°
2026-04-15 13:32 11.73633 123.40407 29765 ft 440 kts 143°
2026-04-15 13:32 11.71161 123.42236 29499 ft 438 kts 143°
2026-04-15 13:33 11.68716 123.44044 29236 ft 436 kts 143°
2026-04-15 13:33 11.66258 123.45861 28972 ft 434 kts 143°
2026-04-15 13:33 11.63819 123.47664 28706 ft 432 kts 143°
2026-04-15 13:33 11.61398 123.49453 28449 ft 431 kts 143°
2026-04-15 13:34 11.56838 123.52820 27959 ft 428 kts 143°
2026-04-15 13:34 11.54448 123.54585 27683 ft 426 kts 143°
2026-04-15 13:34 11.52040 123.56361 27347 ft 424 kts 143°
2026-04-15 13:35 11.49641 123.58131 26975 ft 421 kts 142°
2026-04-15 13:35 11.47276 123.59877 26591 ft 419 kts 142°
2026-04-15 13:35 11.44928 123.61609 26196 ft 416 kts 142°
2026-04-15 13:35 11.42590 123.63334 25807 ft 413 kts 142°
2026-04-15 13:36 11.40265 123.65048 25435 ft 410 kts 142°
2026-04-15 13:36 11.37990 123.66727 25049 ft 408 kts 142°
2026-04-15 13:36 11.35694 123.68420 24654 ft 406 kts 142°
2026-04-15 13:36 11.33402 123.70110 24258 ft 404 kts 142°
2026-04-15 13:37 11.31128 123.71787 23863 ft 402 kts 142°
2026-04-15 13:37 11.28866 123.73453 23469 ft 401 kts 141°
2026-04-15 13:37 11.26612 123.75115 23063 ft 399 kts 141°
2026-04-15 13:37 11.24342 123.76790 22641 ft 398 kts 141°
2026-04-15 13:38 11.22101 123.78442 22214 ft 398 kts 141°
2026-04-15 13:38 11.19852 123.80102 21805 ft 397 kts 141°
2026-04-15 13:38 11.17631 123.81737 21426 ft 395 kts 141°
2026-04-15 13:38 11.15366 123.83316 21050 ft 394 kts 147°
2026-04-15 13:39 11.12890 123.84486 20688 ft 395 kts 158°
2026-04-15 13:39 11.10203 123.85204 20333 ft 395 kts 167°
2026-04-15 13:39 11.07508 123.85686 19984 ft 393 kts 168°
2026-04-15 13:39 11.04826 123.86131 19633 ft 391 kts 168°
2026-04-15 13:40 11.02150 123.86578 19276 ft 388 kts 168°
2026-04-15 13:40 10.99487 123.87026 18917 ft 386 kts 168°
2026-04-15 13:40 10.96826 123.87480 18555 ft 385 kts 167°
2026-04-15 13:40 10.94173 123.87937 18209 ft 382 kts 167°
2026-04-15 13:41 10.91555 123.88390 17870 ft 379 kts 168°
2026-04-15 13:41 10.88984 123.88836 17534 ft 377 kts 168°
2026-04-15 13:41 10.86364 123.89289 17186 ft 375 kts 167°
2026-04-15 13:41 10.83821 123.89729 16840 ft 373 kts 167°
2026-04-15 13:42 10.81249 123.90176 16486 ft 371 kts 167°
2026-04-15 13:42 10.78696 123.90619 16138 ft 369 kts 167°
2026-04-15 13:42 10.76158 123.91059 15774 ft 368 kts 167°
2026-04-15 13:42 10.73633 123.91498 15424 ft 367 kts 167°
2026-04-15 13:43 10.71140 123.91930 15084 ft 365 kts 167°
2026-04-15 13:43 10.68608 123.92368 14718 ft 364 kts 167°
2026-04-15 13:43 10.66113 123.92800 14364 ft 362 kts 167°
2026-04-15 13:43 10.63623 123.93233 14029 ft 360 kts 167°
2026-04-15 13:44 10.61163 123.93658 13702 ft 358 kts 167°
2026-04-15 13:44 10.58693 123.94087 13362 ft 356 kts 167°
2026-04-15 13:44 10.56265 123.94507 13040 ft 354 kts 167°
2026-04-15 13:44 10.53814 123.94932 12694 ft 353 kts 167°
2026-04-15 13:45 10.51421 123.95346 12360 ft 351 kts 167°
2026-04-15 13:45 10.48992 123.95766 12018 ft 349 kts 167°
2026-04-15 13:45 10.46606 123.96181 11684 ft 347 kts 167°
2026-04-15 13:47 10.30388 123.98887 10030 ft 312 kts 172°
2026-04-15 13:47 10.28244 123.99047 9998 ft 301 kts 173°
2026-04-15 13:47 10.26148 123.99192 9735 ft 300 kts 173°
2026-04-15 13:48 10.24065 123.99335 9437 ft 300 kts 172°
2026-04-15 13:48 10.21978 123.99482 9150 ft 300 kts 173°
2026-04-15 13:48 10.19888 123.99628 8878 ft 299 kts 173°
2026-04-15 13:48 10.17806 123.99776 8601 ft 299 kts 173°
2026-04-15 13:49 10.15711 123.99923 8321 ft 298 kts 173°
2026-04-15 13:49 10.13641 124.00069 8054 ft 297 kts 173°
2026-04-15 13:49 10.11555 124.00217 7786 ft 295 kts 173°
2026-04-15 13:49 10.09521 124.00359 7537 ft 294 kts 173°
2026-04-15 13:50 10.07469 124.00504 7271 ft 293 kts 174°
2026-04-15 13:50 10.05428 124.00645 7019 ft 291 kts 174°
2026-04-15 13:50 10.03411 124.00787 6755 ft 291 kts 173°
2026-04-15 13:50 10.01396 124.00930 6485 ft 285 kts 174°
2026-04-15 13:51 9.99431 124.01068 6235 ft 279 kts 174°
2026-04-15 13:51 9.97490 124.01204 5965 ft 279 kts 174°
2026-04-15 13:51 9.95553 124.01341 5735 ft 277 kts 174°
2026-04-15 13:51 9.93642 124.01475 5532 ft 272 kts 174°
2026-04-15 13:52 9.91777 124.01605 5242 ft 265 kts 174°
2026-04-15 13:52 9.89961 124.01550 5036 ft 255 kts 196°
2026-04-15 13:52 9.88415 124.00715 4887 ft 250 kts 221°
2026-04-15 13:52 9.87178 123.99500 4619 ft 243 kts 224°
2026-04-15 13:53 9.86016 123.98305 4379 ft 234 kts 224°
2026-04-15 13:53 9.84895 123.97160 4241 ft 225 kts 224°
2026-04-15 13:53 9.83797 123.96053 4082 ft 220 kts 224°
2026-04-15 13:53 9.82709 123.94966 3923 ft 214 kts 224°
2026-04-15 13:54 9.81664 123.93928 3798 ft 206 kts 223°
2026-04-15 13:54 9.80654 123.92925 3646 ft 200 kts 223°
2026-04-15 13:54 9.79679 123.91960 3538 ft 191 kts 223°
2026-04-15 13:54 9.78745 123.91036 3404 ft 184 kts 223°
2026-04-15 13:55 9.77880 123.90101 3283 ft 176 kts 228°
2026-04-15 13:55 9.77082 123.89204 3186 ft 169 kts 223°
2026-04-15 13:55 9.76192 123.88424 3071 ft 169 kts 216°
2026-04-15 13:55 9.75220 123.87739 3032 ft 169 kts 211°
2026-04-15 13:56 9.74224 123.87111 2932 ft 169 kts 210°
2026-04-15 13:56 9.73203 123.86494 2851 ft 169 kts 209°
2026-04-15 13:56 9.72198 123.85897 2777 ft 169 kts 209°
2026-04-15 13:56 9.71168 123.85285 2709 ft 168 kts 209°
2026-04-15 13:57 9.70152 123.84682 2643 ft 168 kts 209°
2026-04-15 13:57 9.69136 123.84077 2527 ft 169 kts 209°
2026-04-15 13:57 9.68126 123.83476 2285 ft 167 kts 209°
2026-04-15 13:57 9.67146 123.82890 2055 ft 162 kts 210°
2026-04-15 13:58 9.66181 123.82314 1835 ft 156 kts 210°
2026-04-15 13:58 9.65244 123.81757 1633 ft 157 kts 210°
2026-04-15 13:58 9.64298 123.81193 1422 ft 157 kts 210°
2026-04-15 13:58 9.63358 123.80632 1209 ft 156 kts 210°
2026-04-15 13:59 9.62428 123.80077 1006 ft 156 kts 210°
2026-04-15 13:59 9.61476 123.79510 798 ft 156 kts 210°
2026-04-15 13:59 9.60553 123.78949 568 ft 155 kts 211°
2026-04-15 13:59 9.59618 123.78391 329 ft 154 kts 211°
2026-04-15 14:00 9.58694 123.77836 174 ft 155 kts 211°
2026-04-15 14:00 9.57772 123.77290 57 ft 138 kts 210°
2026-04-15 14:00 9.57199 123.76950 56 ft 50 kts 210°
2026-04-15 14:00 9.56982 123.76822 56 ft 20 kts 206°
2026-04-15 14:01 9.56904 123.76864 56 ft 4 kts 121°
2026-04-15 14:01 9.56882 123.76902 56 ft 7 kts 122°
2026-04-15 14:01 9.56850 123.76953 56 ft 9 kts 120°
2026-04-15 14:02 9.56856 123.77018 56 ft 10 kts 52°
2026-04-15 14:02 9.56920 123.77062 56 ft 10 kts 30°
2026-04-15 14:02 9.56986 123.77100 56 ft 11 kts 31°
2026-04-15 14:02 9.57045 123.77138 56 ft 5 kts 48°
2026-04-15 14:03 9.57044 123.77175 56 ft 5 kts 109°
2026-04-15 14:03 9.57032 123.77196 56 ft 3 kts 121°
2026-04-15 14:03 9.57022 123.77212 56 ft 0 kts 121°
2026-04-15 14:03 9.57022 123.77213 56 ft 0 kts 121°